Regional Weather Roundup
Issued by NWS

Home | Current Version | Previous Version | Graphics & Text | Print | Product List | Glossary On
Versions: 1 2 3 4 5 6 7 8 9 10 11 12 13 14 15 16 17 18 19 20 21 22 23 24 25 26 27 28 29 30 31 32 33 34 35 36 37 38 39 40 41 42 43 44 45 46 47 48 49 50
000
ASUS45 KABQ 241410
RWRNM
NEW MEXICO REGIONAL WEATHER ROUNDUP
NATIONAL WEATHER SERVICE ALBUQUERQUE NM
700 AM MST FRI NOV 24 2017

NOTE: "FAIR" MEANS FEW OR NO CLOUDS BELOW 12,000 FEET AGL WITH NO
       SIGNIFICANT WEATHER OR OBSTRUCTIONS TO VISION.

      THIS PRODUCT IS RELEASED AS TWO VERSIONS.  ONE VERSION NEAR
      THE TOP OF THE HOUR CONTAINING PRELIMINARY DATA FROM ALBUQUERQUE
      AND OTHER STATIONS.  A FINAL VERSION WITH ADDITIONAL DATA IS
      ISSUED ABOUT 10 MINUTES AFTER THE HOUR.

NMZ501-503-504-510>518-241500-
NORTHWEST PLATEAU/NORTHCENTRAL MOUNTAINS

CITY           SKY/WX    TMP DP  RH WIND       PRES   REMARKS
FARMINGTON     FAIR      30  23  75 E8        30.14R WCI  22
LOS ALAMOS     FAIR      44  23  44 CALM      30.17R
SANTA FE       FAIR      34  28  79 N9        30.11F WCI  27
TAOS           FAIR      22  18  85 N5        30.18S WCI  16
ANGEL FIRE     FAIR      35  21  57 SE7       30.17R WCI  29

$$
NMZ402-403-502-505>509-241500-
WESTCENTRAL MOUNTAINS/SOUTHWEST MOUNTAINS

CITY           SKY/WX    TMP DP  RH WIND       PRES   REMARKS
GALLUP         FAIR      22  16  78 CALM      30.19F
GRANTS         FAIR      22  17  79 N6        30.21R WCI  15
SILVER CITY    FAIR      42  25  50 NW10      30.14R

$$
NMZ407-409-411-412-241500-
SOUTHERN DESERTS

CITY           SKY/WX    TMP DP  RH WIND       PRES   REMARKS
DEMING         FAIR      36  24  62 SW5       30.09F WCI  32
LAS CRUCES     FAIR      36  23  59 CALM      30.09F
ALAMOGORDO     FAIR      36  25  64 S5        30.07F WCI  32
T OR C         FAIR      44  22  41 N6        30.10R

$$
NMZ519>523-241500-
CENTRAL VALLEYS/CENTRAL HIGHLANDS

CITY           SKY/WX    TMP DP  RH WIND       PRES   REMARKS
ALBUQUERQUE    FAIR      39  28  64 NW7       30.13R WCI  34
DOUBLE EAGLE   PTCLDY    32  21  64 CALM      30.13R
MORIARTY ARPT  FAIR      22  17  83 CALM      30.13R
CLINES CORNERS FAIR      40  25  55 NW17      30.11S WCI  31
BELEN          FAIR      30  23  74 NW3       30.11F
SOCORRO        FAIR      34  25  67 W6        30.11S WCI  29

$$
NMZ524>526-539-540-241500-
SOUTHCENTRAL MOUNTAINS

CITY           SKY/WX    TMP DP  RH WIND       PRES   REMARKS
RUIDOSO        FAIR      46  23  39 W12       30.15R

$$
NMZ527>531-241500-
NORTHEAST HIGHLANDS/NORTHEAST PLAINS

CITY           SKY/WX    TMP DP  RH WIND       PRES   REMARKS
LAS VEGAS      FAIR      43  17  35 E5        30.04R
RATON          FAIR      37  25  61 NE9       29.99R WCI  30
CLAYTON        FAIR      49  24  37 S8        29.87R

$$
NMZ532>537-241500-
EASTCENTRAL PLAINS

CITY           SKY/WX    TMP DP  RH WIND       PRES   REMARKS
SANTA ROSA     FAIR      55  26  32 W18       29.95S
TUCUMCARI      FAIR      43  31  62 W10       29.86S
CANNON AFB     FAIR      46  30  53 W15       29.92F
CLOVIS AIRPORT FAIR      46  30  53 W13       29.91F

$$
NMZ028-029-538-241500-
SOUTHEAST PLAINS

CITY           SKY/WX    TMP DP  RH WIND       PRES   REMARKS
ROSWELL        FAIR      37  27  67 CALM      29.95F
ARTESIA        FAIR      43  28  56 SW9       29.97F
CARLSBAD       FAIR      40  32  73 N5        29.96R
HOBBS          CLEAR     41  30  65 SW7       29.96S


$$



USA.gov is the U.S. government's official web portal to all federal, state and local government web resources and services.